STARLINK-11733, 64072

Orbit data source: Space-Track

STARLINK-11733, 64072 is a payload satellite owned by SpaceX/Seattle (US) in LEO that was launched on Wed, 21 May 2025 UTC via an FALCON 9 launch vehicle from the Air Force Eastern Test Range (AFETR). Payload-class satellites include a variety of spacecraft equipped with specific instruments for various scientific and technological missions. These include communications satellites like Starlink; space stations such as the ISS; scientific satellites like the Hubble; Earth observation satellites from companies like Planet Labs, Umbra, and HawkEye 360; GPS; miniature CubeSats for education and research; and military/defense satellites.

Loading next visibility...
Identifier
64072, 2025-107J
Orbit
LEO
Country
Flag of USUS
Related business
Manufacturer
SpaceX/Seattle
Mission
Operational Commercial Communications
Bus & Motor
STARLINK V2MD, Unknown motor
Mass
960 kg wet, ~910 kg dry
Launch date (UTC)
2025-05-21 (1 year ago)
Launch vehicle
FALCON 9
Launch site
Air Force Eastern Test Range (AFETR)
Object type
Payload
Rocket body
Debris
Shape & HBR
Box + 2 Pan, 18.1 m
Radar Cross Section
36.964 m², Large (>1 m²)

Expand to show TLE details & history
Last TLE update: 1 day ago

TLE from 1 day ago
0 STARLINK-11733
1 64072U 25107J   26170.39056319  .00224687  00000-0  17040-2 0  9999
2 64072  43.0008 205.1520 0000738 237.6329 122.4467 15.70890405 63296
Epoch: 2026-06-19T09:22Z
TLE epoch observation values (Epoch: 2026-06-19T09:22:24.659Z)
Latitude
-0.00004°
Longitude
156.92899°
Altitude
356.389 km
Speed
7.697 km/s
True Right ascension
13h 40m 36s
True Declination
0° 00' 00"
Sunlit
Object was in full shadow at epoch
Visualization orbit readout
Latitude
Unknown
Longitude
Unknown
Altitude
Unknown
Speed
Unknown
Apparent Right ascension
Unknown
Apparent Declination
Unknown
Sunlit
N/A
Visualization observer readout
Local Sidereal Time
07:20:11
Azimuth
Unknown
Elevation
Unknown
Doppler factor
Unknown
Orbital elements
Apogee altitude
358.83 km
Perigee altitude
357.835 km
Semi-major axis
6,736.469 km
Eccentricity
0.00007
Inclination
43.0008°
RAAN
205.152°
Arg. of periapsis
237.6329°
True anomaly
122.45384°
Mean anomaly
122.4467°
Eccentric anomaly
122.45027°
Mean motion
3.9255 °/min
Orbital period
91.71 mins
BSTAR
0.001704
Loading maneuver chart data...
Computing Atmospheric mass density...
Loading historical data...
Loading historical data...
Loading historical data...
Loading historical data...
Loading historical data...
Loading historical data...
Loading historical data...

Documentation

Showing up to 5 results
|